Regional Weather Roundup
Issued by NWS Pendleton, OR

Home | Current Version | Previous Version | Text Only | Print | Product List | Glossary On
Versions: 1 2 3 4 5 6 7 8 9 10 11 12 13 14 15 16 17 18 19 20 21 22 23 24 25 26 27 28 29 30 31 32 33 34 35 36 37 38 39 40 41 42 43 44 45 46 47 48 49 50
000
ASUS46 KPDT 261537
RWRPDT
PENDLETON REGIONAL WEATHER ROUNDUP
NATIONAL WEATHER SERVICE PENDLETON OREGON
800 AM PDT THU APR 26 2018

NOTE: FAIR INDICATES FEW OR NO CLOUDS BELOW 12,000 FEET WITH NO
SIGNIFICANT WEATHER AND/OR OBSTRUCTIONS TO VISIBILITY.

# INDICATES UNOFFICIAL STATION AND DATA

WAZ520-261610-
EAST SLOPES OF WASHINGTON CASCADES

CITY            SKY/WX      TMP DP  RH  WIND    PRES   REMARKS
#BULLFROG       N/A         43  37  79  CALM    N/A
#CLE ELUM HS    N/A         46  37  71  CALM    30.10R
#EASTON DOT     N/A         39  35  85  CALM    N/A
#ELK HTS DOT    N/A         46  46  100 CALM    N/A
#GLENWOOD       N/A         44  41  89  CALM    30.10S
#NELSON 3SW     N/A         45  39  79  CALM    30.32S
#NILE           N/A         42  34  73  W5      29.49F
#TEANAWAY 4NE   N/A         39  38  96  CALM    N/A
#TROUT LAKE 1NE N/A         46  41  83  CALM    30.08S
#TROUT LAKE 1E  N/A         41  40  96  CALM    30.14S
$$

WAZ521-261610-
SIMCOE HIGHLANDS

CITY            SKY/WX      TMP DP  RH  WIND    PRES   REMARKS
#BICKLETON HS   N/A         61  34  36  N8      29.78R
#SATUS PASS DOT N/A         52  31  44  CALM    N/A
#CENTERVILLE 1SWN/A         45  40  82  CALM    30.07R
#GOLDENDALE 1NE N/A         48  23  37  CALM    N/A
#GOLDENDALE 4W  N/A         56  26  31  CALM    30.14R
#GOODNOE HILLS  N/A         63  43  48  E2      30.03R
#LYLE 6NE       N/A         50  38  63  N7      30.07R
#PITT 4SE       N/A         56  41  57  NE2     30.09R
$$

WAZ026-261610-
KITTITAS VALLEY

CITY            SKY/WX      TMP DP  RH  WIND    PRES   REMARKS
ELLENSBURG AP   SUNNY       50  37  61  CALM    30.15
#ELLENSBURG CWU N/A         47  37  68  CALM    30.06S
#ELLENSBURG 3NE N/A         48  40  74  CALM    28.22S
#ELLENSBURG 1E  N/A         47  39  74  CALM    30.18F
#KITTITAS 3S    N/A         42  38  86  SW1     30.14S
#MANASTASH RDG  N/A         53  53  100 N2      N/A
#ROCKY CYN DOT  N/A         49  40  71  NW3     N/A
#RYEGRASS DOT   N/A         60  32  35  CALM    N/A
$$

WAZ027-261610-
YAKIMA VALLEY

CITY            SKY/WX      TMP DP  RH  WIND    PRES   REMARKS
SUNNYSIDE AP    SUNNY       49  39  68  CALM    30.12
YAKIMA AIRPORT  SUNNY       54  40  59  W3      30.14
YAKIMA-VAGABOND SUNNY       54  35  48  W5      30.11
#DONALD 2NE     N/A         65   7  10  S2      28.96R
#GRANDVIEW      N/A         53  36  52  W1      30.12S
#MOXEE 2E       N/A         37  N/A N/A SW12    29.79S WCI 29
#NACHES 2SW     N/A         53  38  57  W7      30.14R
#OUTLOOK DOT    N/A         50  41  71  CALM    30.09R
#PARKER DOT     N/A         56  35  45  S12     30.10S
#TERRACE HTS    N/A         49  40  71  CALM    30.08R
#TOPPENISH      N/A         53  40  61  CALM    30.03R
#I82 S UMTANUM RN/A         59  36  42  SE1     N/A
#UNION GAP DOT  N/A         54  35  48  NW9     30.16R
#W YAKIMA       N/A         55  40  57  CALM    30.11R
#WHITE SWAN 5E  N/A         50  44  80  CALM    30.12R
#WILEY CITY 3W  N/A         61  37  41  CALM    30.10R
#ZILLAH DOT     N/A         51  40  66  SW1     N/A
$$

WAZ028-261610-
LOWER COLUMBIA BASIN...WASHINGTON

CITY            SKY/WX      TMP DP  RH  WIND    PRES   REMARKS
HANFORD         MOSUNNY     58  36  44  N8      30.10S
PASCO           SUNNY       49  40  71  CALM    30.13
PROSSER AWOS    N/A         52  45  77  CALM    30.15S
RICHLAND AWOS   SUNNY       55  40  57  MISG    30.13
#BASIN CITY 5SW N/A         50  43  77  NE1     30.10R
#BENTON CITY    N/A         54  41  61  CALM    30.02R
#CONNELL 5N     N/A         52  41  66  CALM    30.10S
#CONNELL 5NW    N/A         52  27  38  CALM    30.05S
#ELTOPIA 6NW    N/A         53  43  69  CALM    29.08S
#KAHLOTUS       N/A         47  40  76  S9      30.09S
#KENNEWICK 3S   N/A         54  44  69  CALM    30.10R
#PROSSER DOT    N/A         53  44  71  CALM    30.13R
#SAGEMOOR 2W    N/A         52  42  69  N2      29.96S
#TOUCHET 2S     N/A         47  44  89  CALM    30.10R
#WEST PASCO     N/A         51  40  66  CALM    30.15R
$$

WAZ029-261610-
FOOTHILLS OF THE BLUES...WASHINGTON

CITY            SKY/WX      TMP DP  RH  WIND    PRES   REMARKS
WALLA WALLA AP  SUNNY       57  43  59  CALM    30.11
#CLYDE 6NW      N/A         55  45  69  CALM    30.09R
#DELANEY DOT    N/A         45  39  79  N3      30.14S
#LOWDEN 2SE     N/A         50  47  89  CALM    30.09R
#PLEASANT VIEW 1N/A         52  41  66  N1      30.10S
#PRESCOTT       N/A         55  45  69  CALM    30.09S
#WHITMAN COLLEGEN/A         58  43  57  CALM    30.13S
#WAITSBURG 6SSE N/A         61  40  46  CALM    29.92S
#WAITSBURG 8N   N/A         86  N/A N/A S2      29.88S
#WALLA WALLA 5E N/A         60  47  62  CALM    N/A
#WHITMAN MISSIONN/A         49  47  93  CALM    30.12R
$$

WAZ030-261610-
BLUE MOUNTAINS...WASHINGTON

CITY            SKY/WX      TMP DP  RH  WIND    PRES   REMARKS
$$

ORZ009-041-WAZ024-261610-
COLUMBIA RIVER GORGE

CITY            SKY/WX      TMP DP  RH  WIND    PRES   REMARKS
HOOD RIVER AP   SUNNY       52  41  66  CALM    30.11
THE DALLES AP   N/A         N/A N/A N/A MISG    30.12
#ARLINGTON AIRPON/A         53  41  64  SW2     30.10R
#CELILO DOT     N/A         54  41  61  CALM    N/A
#LYLE           N/A         51  44  77  CALM    30.11S
#MARYHILL       N/A         54  40  59  CALM    29.97
#MURDOCK        N/A         51  45  80  CALM    30.07S
#RUFUS DOT      N/A         50  41  71  SE6     N/A
#SMITHVILLE     N/A         54  46  74  E1      30.11R

$$

ORZ510-261610-
NORTH CENTRAL OREGON

CITY            SKY/WX      TMP DP  RH  WIND    PRES   REMARKS
#ANTELOPE       N/A         50  40  68  CALM    29.93S
#CHENOWITH 1W   N/A         60  41  49  E3      N/A
#COW CYN RST AREN/A         56  N/A N/A CALM    N/A
#DUFUR          N/A         53  43  69  CALM    30.06R
#DUFUR 9E       N/A         60  41  49  CALM    30.10R
#GRASS VALLEY 1SN/A         61  43  51  CALM    30.12S
#KENT DOT       N/A         56  36  47  E1      N/A
#MAUPIN SCHOOL  N/A         49  42  77  CALM    30.18R
#SHANIKO 5WSW   N/A         56  36  47  NE14    N/A
#SHANIKO 4NW    N/A         54  36  50  E13     30.12R
#WAPANITIA AIRPON/A         53  40  61  CALM    30.10R
#WASCO DOT      N/A         55  43  64  CALM    N/A
#WASCO 5NE      N/A         57  43  59  CALM    30.09R
$$

ORZ511-261610-
CENTRAL OREGON

CITY            SKY/WX      TMP DP  RH  WIND    PRES   REMARKS
BEND AIRPORT    SUNNY       57  36  45  CALM    30.14
MADRAS AIRPORT  SUNNY       52  41  66  CALM    30.14
PRINEVILLE AP   SUNNY       54  39  57  CALM    30.14
REDMOND AIRPORT SUNNY       52  36  54  SE3     30.13
#ASHWOOD SCHOOL N/A         48  40  74  CALM    30.08S
#BEND 1SW       N/A         51  40  66  CALM    N/A
#BEND-AWBREY    N/A         54  37  52  N2      30.00S
#BEND-KIM LN    N/A         53  39  59  CALM    29.97F
#CULVER         N/A         50  40  68  SW2     29.88R
#CULVER 8W      N/A         65  32  29  SE1     30.12S
#LAKE BILLY CHINN/A         52  N/A N/A CALM    30.18S
#POWELL BUTTE   N/A         54  38  55  NW2     30.08R
#PRINEVILLE     N/A         49  41  74  CALM    30.14R
#PRINEVILLE 3N  N/A         48  41  77  CALM    30.04S
#WARM SPRINGS   N/A         52  40  63  CALM    29.95S

$$


ORZ509-261610-
EAST SLOPES OF OREGON CASCADES

CITY            SKY/WX      TMP DP  RH  WIND    PRES   REMARKS
SISTERS AWOS    N/A         45  36  70  CALM    30.10S
#BLUE BOX PASS  N/A         50  N/A N/A CALM    N/A
#CAMP SHERMAN   N/A         36  33  89  CALM    30.17R
#LA PINE 4NW    N/A         46  36  68  CALM    30.03S
#LAVA BUTTE DOT N/A         50  36  58  N2      N/A
#SISTERS ODOT   N/A         47  36  65  CALM    N/A
#SISTERS 3N     N/A         46  36  68  CALM    30.14S
#SUNRIVER       N/A         54  37  52  N2      29.99F
#TUMALO 3W      N/A         55  35  47  CALM    29.88S
#WANOGA BUTTE D N/A         55  N/A N/A NE6     N/A

$$

ORZ044-261610-
LOWER COLUMBIA BASIN...OREGON

CITY            SKY/WX      TMP DP  RH  WIND    PRES   REMARKS
HERMISTON       SUNNY       52  45  77  S6      30.11
#BOARDMAN SCHOOLN/A         49  44  83  CALM    30.11S
#BOARDMAN 8SW   N/A         52  45  77  W1      30.10R
#ECHO 8SW       N/A         53  53  100 CALM    30.12R
#I-84 EX 198 DOTN/A         57  45  64  CALM    N/A
#IONE SCHOOL    N/A         51  35  54  CALM    30.10F
#UMATILLA       N/A         50  43  77  CALM    30.04R
$$

ORZ507-261610-
NORTHERN FOOTHILLS OF THE BLUES

CITY            SKY/WX      TMP DP  RH  WIND    PRES   REMARKS
PENDLETON AIRPT SUNNY       54  42  64  CALM    30.11
#ADAMS 3WNW     N/A         55  47  74  NE1     30.09S
#ATHENA         N/A         55  45  69  CALM    30.12S
#CAYUSE         N/A         53  45  74  SW2     30.08R
#HELIX SCHOOL   N/A         50  46  86  CALM    30.10R
#HELIX 3N       N/A         59  43  55  S1      30.12S
#HOLDMAN 5SE    N/A         53  49  86  CALM    30.10S
#HOLDMAN 6E     N/A         58  45  62  CALM    29.89S
#M-F GROVE ELEM N/A         60  39  46  CALM    30.08R
#M-FREEWATER 5SEN/A         60  43  53  CALM    30.09S
#PENDLETON DNTN N/A         47  41  79  CALM    N/A
#PDT AQUATIC CTRN/A         51  43  74  CALM    30.08S
#PDT SUNRIDGE   N/A         52  44  74  CALM    30.13S
#PENDLETON 6SE  N/A         52  44  74  SW1     30.05R
#PENDLETON 7NW  N/A         54  45  71  CALM    N/A
#PILOT ROCK 1S  N/A         59  39  47  CALM    30.11S
#PILOT ROCK     N/A         58  45  62  CALM    30.11S
#TUTUILLA       N/A         48  45  89  CALM    30.17R
#UMAPINE 2E     N/A         53  47  80  CALM    30.09R

$$

ORZ508-261610-
SOUTHERN FOOTHILLS OF THE BLUES

CITY            SKY/WX      TMP DP  RH  WIND    PRES   REMARKS
#AJAX           N/A         57  39  51  CALM    30.25S
#CONDON 5W      N/A         56  37  49  E3      30.09S
#FOSSIL SCHOOL  N/A         49  40  71  CALM    30.05F
#HEPPNER EOC    N/A         58  41  53  CALM    29.99F
#HEPPNER 4NE    N/A         61  42  50  NE2     30.05S
#LEXINGTON 2SE  N/A         58  42  55  CALM    30.06F
#MIKKALO        N/A         59  44  57  CALM    30.20S
#OLEX 4N        N/A         53  47  80  CALM    30.09R
#RUGGS 5NE      N/A         61  40  46  E3      30.27S
#RUGGS 2SW      N/A         54  39  57  NE1     30.08S

$$

ORZ502-503-261610-
BLUE MOUNTAINS

CITY            SKY/WX      TMP DP  RH  WIND    PRES   REMARKS
MEACHAM         SUNNY       41  33  73  CALM    30.15
#BATTLE MTN DOT N/A         44  36  73  S2      N/A
#GRANITE        N/A         34  30  85  CALM    29.85S
#HARDMAN 10S    N/A         56  37  49  CALM    30.14S
#HEPPNER 15SE   N/A         53  38  57  CALM    25.65
#LADD CYN SMT   N/A         45  41  86  E1      N/A
#LADD CREEK ODOTN/A         41  37  86  S2      N/A
#N POWDER DOT   N/A         43  36  76  NW1     N/A
#PIKES PEAK     N/A         60  32  35  CALM    27.99S
#SUMMERVILLE 5NWN/A         52  42  69  CALM    26.81S
#TOLLGATE       N/A         51  34  52  CALM    30.20S
#TROY SCHOOL    N/A         51  42  71  S1      30.01F
#UKIAH          N/A         37  35  92  CALM    30.06F
#WESTON 4E      N/A         59  39  47  E1      30.02S
$$

ORZ505-261610-
JOHN DAY BASIN

CITY            SKY/WX      TMP DP  RH  WIND    PRES   REMARKS
JOHN DAY        SUNNY       54  38  55  E8      30.15
#ANTELOPE 9ESE  N/A         54  42  64  CALM    N/A
#DAYVILLE SCHOOLN/A         51  37  59  CALM    30.10S
#MITCHELL 8NW   N/A         57  37  47  CALM    30.03S
#MONUMENT HS    N/A         48  39  71  CALM    30.09S
#MT. VERNON 5SE N/A         57  39  51  N2      30.09F
#SPRAY SCHOOL   N/A         52  N/A N/A CALM    N/A
$$

ORZ506-261610-
OCHOCO AND JOHN DAY HIGHLANDS

CITY            SKY/WX      TMP DP  RH  WIND    PRES   REMARKS
#HORSE RIDGE DO N/A         45  31  58  CALM    N/A
#IZEE 6NW       N/A         42  36  79  N2      N/A
#KEYES SMT DOT  N/A         52  37  56  SE7     N/A
#PAULINA ODOT   N/A         47  36  65  CALM    N/A
#PINE MTN OBS   N/A         52  29  41  E6      N/A
#PRAIRIE CITY   N/A         49  41  74  CALM    30.30R
#SENECA         N/A         39  N/A N/A S1      N/A
#SENECA 9NW     N/A         37  35  92  CALM    30.09F
$$

ORZ049-261610-
GRANDE RONDE VALLEY

CITY            SKY/WX      TMP DP  RH  WIND    PRES   REMARKS
LA GRANDE       SUNNY       45  36  70  CALM    30.19
#COVE SCHOOL    N/A         50  39  66  CALM    30.18S
#COVE 6NW       N/A         43  39  86  CALM    30.16R
#ELGIN 3N       N/A         45  38  76  S1      30.14S
#ELGIN 1E       N/A         40  34  79  CALM    N/A
#IMBLER SCHOOL  N/A         45  37  73  CALM    30.14R
#ISLAND CITY 4N N/A         57  49  75  CALM    29.97R
#LADD CYN DOT   N/A         47  41  79  N2      N/A
#UNION 1S       N/A         48  40  74  CALM    30.14S
$$

ORZ050-261610-
WALLOWA COUNTY

CITY            SKY/WX      TMP DP  RH  WIND    PRES   REMARKS
#ENTERPRISE HS  N/A         45  37  73  CALM    30.02F
#IMNAHA SCHOOL  N/A         46  38  73  N2      30.17F
#JOSEPH         N/A         51  31  46  CALM    30.35S
#JOSEPH 3N      N/A         45  36  70  CALM    30.19S
#JOSEPH 3W      N/A         57  34  42  E2      30.01S
#LOSTINE        N/A         46  36  68  CALM    29.95S
#LOSTINE 3SE    N/A         47  35  63  W2      30.25R
#MT HOWARD 8000 N/A         53  N/A N/A CALM    30.30R
#PROMISE 1S     N/A         51  40  66  CALM    30.16S
#WALLOWA LAKE   N/A         44  29  55  SE1     30.20S
#WALLOWA SCHOOL N/A         43  36  76  CALM    30.15S



$$



USA.gov is the U.S. government's official web portal to all federal, state and local government web resources and services.